Location: Bennemühlen
(52.5740°N, 9.7135°E)
Time: 02:34:40
(UTC+00:00)

Vanguard 2 Rocket - Pass Details

Date: 20 February 2026
Orbit: 553 x 3286 km, 32.9° (Epoch: 8 March)

Event Time Altitude Azimuth Distance (km) Brightness Sun altitude
Rises 15:54:39 0° 265° (W) 6,637 12.8 6.0°
Reaches altitude 10° 16:01:08 10° 252° (WSW) 5,139 13.3 5.1°
Maximum altitude 16:09:46 19° 214° (SW) 3,603 11.0 3.9°
Drops below altitude 10° 16:16:08 10° 173° (S) 3,619 10.2 3.0°
Sets 16:19:39 0° 155° (SSE) 4,183 10.3 2.5°
